Cloud_Cover
94 29 80 100 88 68 100 100 11 94 100 100 100 100 94 100 100 100 100 100 100 100
36 60 100 100 100 100 89 100 100 100 100 100 100 100 96 95 100 100 100 100 100 100
66 100 100 100 98 100 100 100 100 100 100 100 100 100 100 100 100 100 100 100 100 100
88 100 100 100 99 100 100 100 100 100 100 100 100 100 100 100 100 100 100 100 100 100
96 98 100 100 100 100 100 100 100 100 100 100 100 100 100 100 100 100 100 100 100 100
89 41 100 71 100 100 100 100 100 100 100 100 100 100 100 100 100 100 100 100 100 100
81 88 39 100 100 100 100 100 100 100 100 100 100 100 100 100 100 100 100 99 100 99
7 14 100 100 100 100 100 100 100 100 100 100 100 100 100 92 100 100 100 99 83 92
99 100 100 100 100 100 100 100 28 9 10 78 66 100 65 100 100 86 68 52 44 100
3 4 5 12 24 65 61 9 5 28 91 81 89 86 72 62 88 31 11 63 100 100
53 5 5 5 5 5 9 38 40 13 11 5 5 8 46 54 93 82 95 100 41 13
5 5 5 5 5 5 5 10 40 48 72 100 100 100 100 91 100 100 100 58 12 9
25 13 9 20 16 43 57 97 100 99 98 94 97 89 79 26 6 5 6 5 5 63
54 52 56 100 88 79 88 100 97 99 56 12 44 32 5 5 5 5 5 11 65 99